[[{"header":{"parameterUnit":"m.s-1","parameterCategory":1,"la1":30.2991,"la2":30.254,"lo1":-89.0895,"lo2":-89.0444,"dy":0.0017,"dx":0.0017,"nx":28,"ny":28,"refTime":"2024-08-13T03:00:00:Z","depth":0,"parameterNumber":2,"parameterNumberName":"U-component_of_WINDS"},"data":[0,0,0,0,0,0,0,0,0,0,0,0,0,0,0,0,0,0,0,0,0,0,0,0,0,0,0,0,0,0,0,0,0,0,0,0,0,0,0,0,0,0,0,0,0,0,0,0,0,0,0,0,0,0,0,0,0,0,0.7602,0.7604,0,0.772,0.7722,0.7723,0.7723,0.7721,0.772,0.7718,0.7847,0.7852,0.7856,0,0,0,0,0,0,0,0,0,0,0,0,0,0.7384,0.7388,0.7602,0.7604,0.7605,0.772,0.7722,0.7723,0.7723,0.7721,0.7719,0.7717,0.7845,0.7851,0.7857,0,0,0,0,0,0,0,0,0,0,0,0,0,0.7488,0.7389,0.7602,0.7619,0.7621,0.772,0.7722,0.7724,0.7723,0.7721,0.7719,0.7716,0.7843,0.7851,0.7858,0.795,0,0,0.788,0.7883,0,0,0,0,0,0,0,0,0.7482,0.7496,0.7615,0.7618,0.7621,0.7704,0.7692,0.78,0.7724,0.7685,0.7718,0.7715,0.7802,0.7812,0.784,0.7956,0.7961,0.7881,0.7885,0.7888,0.789,0,0,0,0,0,0,0,0.7475,0.7491,0.7649,0.7616,0.762,0.7623,0.7635,0.7712,0.7755,0.7688,0.7688,0.7702,0.7803,0.7833,0.7843,0.7963,0.7881,0.7887,0.7892,0.7894,0.8161,0.8164,0,0,0,0,0,0,0.7463,0.7485,0.7645,0.7653,0.7544,0.7628,0.7642,0.768,0.7754,0.7763,0.7704,0.7701,0.7822,0.7834,0.7848,0.7961,0.7888,0.7895,0.7899,0.8159,0.8162,0.8165,0,0,0,0,0,0,0.7459,0.7478,0.7641,0.7569,0.759,0.7635,0.7677,0.7683,0.7713,0.7766,0.7775,0.7726,0.782,0.7837,0.7924,0.7965,0.7898,0.7905,0.8156,0.816,0.8164,0.8188,0,0,0,0,0,0,0.7452,0.7476,0.751,0.757,0.7594,0.7713,0.768,0.7687,0.7725,0.7723,0.7789,0.7798,0.782,0.7913,0.7931,0.7974,0.7911,0.8152,0.8157,0.8162,0.8183,0.8192,0.8199,0,0,0,0,0,0.7444,0.7513,0.7511,0.7531,0.7636,0.7715,0.7729,0.7751,0.7728,0.7764,0.7798,0.7796,0.7957,0.7922,0.7942,0.7988,0.815,0.8156,0.8162,0.818,0.819,0.8199,0,0,0,0,0,0,0.746,0.7522,0.752,0.761,0.7657,0.7715,0.7761,0.7761,0.7818,0.7814,0.7841,0.7856,0.7942,0.7974,0.7933,0.8081,0.8051,0.8062,0.8058,0.8068,0.8076,0.8067,0.7917,0,0,0,0,0,0.7473,0.753,0.7582,0.7656,0.7679,0.7716,0.7751,0.7763,0.7814,0.7835,0.7875,0.7927,0.799,0.803,0.8091,0.8187,0.8203,0.8229,0.8237,0.8243,0.8253,0.8307,0.8319,0.8185,0.8185,0.8185,0,0,0.7503,0.7543,0.7578,0.766,0.7698,0.7758,0.7733,0.7798,0.7843,0.7846,0.793,0.7961,0.8021,0.8113,0.8155,0.8142,0.8293,0.8251,0.8256,0.8262,0.8314,0.8327,0.8338,0.8189,0.8188,0.8188,0,0,0.7587,0.7623,0.7689,0.7727,0.7783,0.7807,0.7823,0.788,0.7901,0.7984,0.7987,0.8043,0.815,0.8192,0.8228,0.8327,0.8328,0.8346,0.8389,0.8441,0.8452,0.8461,0.8498,0.851,0.8355,0.8355,0.8355,0,0.7617,0.7706,0.7723,0.7788,0.7825,0.7826,0.7895,0.7932,0.8006,0.8033,0.8016,0.8149,0.819,0.8292,0.8315,0.8344,0.8364,0.8339,0.8448,0.8458,0.8467,0.8502,0.8516,0.8357,0.8357,0.8356,0.8356,0,0.774,0.7802,0.7849,0.7918,0.796,0.8026,0.8056,0.8097,0.8105,0.8131,0.8217,0.8265,0.8335,0.836,0.837,0.8464,0.8453,0.8442,0.8412,0.8481,0.8515,0.8528,0.8359,0.8359,0.8358,0.8358,0,0,0.7839,0.7916,0.7933,0.7964,0.8027,0.8076,0.8143,0.8208,0.8243,0.8295,0.8353,0.8442,0.8432,0.8472,0.8487,0.8532,0.8609,0.8515,0.8517,0.8532,0.8717,0.8726,0.8741,0.8609,0.8611,0.8614,0.8712,0,0.7931,0.8047,0.8065,0.8168,0.8226,0.8228,0.8286,0.8332,0.8358,0.8413,0.8442,0.8505,0.8486,0.851,0.8555,0.859,0.8647,0.8583,0.8666,0.8668,0.8651,0.8758,0.8768,0.8859,0.8725,0.8727,0.8729,0,0.8054,0.8106,0.8214,0.8268,0.8293,0.8345,0.8406,0.8458,0.851,0.8526,0.857,0.8579,0.865,0.8616,0.8716,0.8672,0.8707,0.8729,0.8733,0.8743,0.8704,0.8772,0.8888,0.8902,0.875,0.8748,0.8746,0,0.8116,0.8213,0.8291,0.8317,0.8382,0.8419,0.8448,0.8498,0.8536,0.8591,0.8616,0.8679,0.8715,0.8764,0.8791,0.8763,0.8889,0.8857,0.8906,0.8906,0.8934,0.8932,0.9058,0.8954,0.8954,0.8954,0.8954,0,0.8218,0.8284,0.8319,0.8367,0.8442,0.8462,0.8537,0.8566,0.861,0.8665,0.8671,0.8723,0.8753,0.881,0.8832,0.8912,0.8928,0.8944,0.8949,0.8944,0.8942,0.8968,0.8963,0.8957,0.8957,0.8956,0.8955,0,0.8301,0.8327,0.8412,0.8465,0.848,0.8533,0.858,0.8628,0.8652,0.8722,0.8739,0.8779,0.8847,0.8877,0.8961,0.8975,0.9067,0.9067,0.9048,0.9051,0.9098,0.9094,0.9247,0.9269,0.9149,0.915,0.9151,0,0.8365,0.8416,0.8474,0.8509,0.8539,0.8597,0.8635,0.8657,0.8698,0.8761,0.8801,0.8868,0.8922,0.903,0.9068,0.9133,0.9135,0.9184,0.9145,0.9138,0.9137,0.9134,0.914,0.9192,0.9193,0.9194,0.9195,0,0.8475,0.8485,0.8539,0.8597,0.8642,0.869,0.8737,0.8767,0.8797,0.8842,0.8909,0.8951,0.9035,0.9102,0.9169,0.9201,0.9204,0.9206,0.9222,0.9218,0.9205,0.9213,0.9069,0.9203,0.9203,0.9202,0.9202,0.9201,0.8552,0.8597,0.8644,0.8704,0.8741,0.8785,0.8832,0.8861,0.8917,0.8985,0.8996,0.9068,0.9119,0.9208,0.9243,0.9301,0.929,0.9311,0.9317,0.9322,0.9325,0.9194,0.9313,0.9313,0.9313,0.9313,0.9313,0,0.8663,0.8693,0.8748,0.8812,0.886,0.8854,0.8906,0.8947,0.9009,0.9056,0.9109,0.9186,0.9251,0.9293,0.9359,0.9397,0.94,0.9414,0.9412,0.942,0.9332,0.9312,0.9411,0.9411,0.9411,0.9411,0.941,0.941,0.8727,0.8803,0.8819,0.8914,0.8944,0.9013,0.9043,0.9084,0.9121,0.9206,0.9259,0.9285,0.933,0.9399,0.9459,0.947,0.9494,0.9508,0.9519,0.9436,0.9426,0.9416,0.9399,0.9513,0.9513,0.9603,0.9604,0.9604]},{"header":{"parameterUnit":"m.s-1","parameterCategory":1,"la1":30.2991,"la2":30.254,"lo1":-89.0895,"lo2":-89.0444,"dy":0.0017,"dx":0.0017,"nx":28,"ny":28,"refTime":"2024-08-13T03:00:00:Z","depth":0,"parameterNumber":3,"parameterNumberName":"V-component_of_WINDS"},"data":[0,0,0,0,0,0,0,0,0,0,0,0,0,0,0,0,0,0,0,0,0,0,0,0,0,0,0,0,0,0,0,0,0,0,0,0,0,0,0,0,0,0,0,0,0,0,0,0,0,0,0,0,0,0,0,0,0,0,2.0823,2.0822,0,2.0798,2.0797,2.0797,2.0762,2.0761,2.076,2.076,2.0731,2.0731,2.0731,0,0,0,0,0,0,0,0,0,0,0,0,0,2.0834,2.0834,2.0823,2.0822,2.0822,2.0798,2.0797,2.0797,2.0762,2.0761,2.076,2.076,2.0731,2.0731,2.0731,0,0,0,0,0,0,0,0,0,0,0,0,0,2.0821,2.0834,2.0823,2.0802,2.08,2.0798,2.0797,2.0797,2.0762,2.0761,2.076,2.0759,2.0731,2.0731,2.0731,2.0747,0,0,2.073,2.0729,0,0,0,0,0,0,0,0,2.0822,2.0821,2.0805,2.0803,2.0801,2.0782,2.0791,2.078,2.0762,2.0776,2.076,2.0759,2.0748,2.0747,2.0744,2.0745,2.0744,2.073,2.0729,2.0729,2.0729,0,0,0,0,0,0,0,2.0823,2.0822,2.0813,2.0805,2.0802,2.0791,2.0789,2.0789,2.0767,2.0775,2.0772,2.077,2.0747,2.0744,2.0743,2.0744,2.073,2.0729,2.0729,2.0729,2.0751,2.0752,0,0,0,0,0,0,2.0828,2.0823,2.0813,2.0812,2.0809,2.0792,2.0789,2.0789,2.0767,2.0763,2.0771,2.0768,2.0745,2.0743,2.0742,2.0756,2.0729,2.0729,2.0729,2.0751,2.0752,2.0752,0,0,0,0,0,0,2.0828,2.0827,2.0815,2.0817,2.0814,2.0793,2.0793,2.0789,2.0786,2.0764,2.076,2.0772,2.0744,2.0742,2.0745,2.0754,2.0729,2.0729,2.075,2.0751,2.0752,2.0786,0,0,0,0,0,0,2.0829,2.0828,2.0835,2.0817,2.0814,2.082,2.0794,2.0789,2.0786,2.0783,2.0764,2.076,2.0744,2.0745,2.0744,2.0754,2.0728,2.0749,2.075,2.0752,2.0784,2.0788,2.0792,0,0,0,0,0,2.0829,2.0846,2.0836,2.0835,2.0823,2.0821,2.0819,2.08,2.0787,2.0793,2.0778,2.0761,2.0754,2.0746,2.0745,2.0754,2.0748,2.075,2.0751,2.0782,2.0788,2.0792,0,0,0,0,0,0,2.0866,2.0844,2.0832,2.0844,2.0834,2.0815,2.0822,2.0807,2.08,2.0797,2.0773,2.0769,2.0773,2.0764,2.0756,2.0765,2.0748,2.0749,2.0772,2.0777,2.0781,2.0782,2.0728,0,0,0,0,0,2.0876,2.0877,2.0857,2.0869,2.0865,2.0844,2.0842,2.0828,2.0817,2.0813,2.0798,2.0787,2.0781,2.0779,2.0773,2.0782,2.0776,2.0788,2.0792,2.0795,2.0796,2.0796,2.08,2.0758,2.0758,2.0758,0,0,2.0896,2.0883,2.0886,2.0876,2.0867,2.0866,2.0841,2.0843,2.0841,2.0813,2.0814,2.0802,2.0788,2.0793,2.0794,2.0785,2.0806,2.0797,2.08,2.0799,2.0799,2.0803,2.0806,2.0759,2.0759,2.0759,0,0,2.0931,2.0923,2.0931,2.0922,2.0908,2.0894,2.0895,2.0877,2.0868,2.0869,2.0847,2.0843,2.0836,2.0825,2.0818,2.0845,2.0828,2.0844,2.0864,2.0865,2.0868,2.0871,2.0877,2.088,2.0845,2.0845,2.0845,0,2.0957,2.0957,2.0936,2.0938,2.0933,2.0907,2.0912,2.0904,2.0889,2.0885,2.0875,2.0862,2.0851,2.0851,2.0857,2.0853,2.0852,2.0846,2.087,2.0872,2.0874,2.088,2.0883,2.0847,2.0847,2.0847,2.0847,0,2.0987,2.0987,2.0994,2.098,2.0976,2.098,2.0957,2.0955,2.094,2.0926,2.0925,2.0909,2.0898,2.0897,2.0884,2.0894,2.0888,2.0874,2.0856,2.0881,2.0885,2.0888,2.085,2.0849,2.0849,2.0848,0,0,2.1047,2.1019,2.1022,2.1013,2.0995,2.0993,2.0994,2.0983,2.098,2.0969,2.0967,2.0959,2.0945,2.0937,2.0922,2.0922,2.094,2.0907,2.0906,2.0912,2.0947,2.0957,2.096,2.0928,2.0929,2.0929,2.0947,0,2.1076,2.1078,2.1058,2.1063,2.1061,2.1034,2.1034,2.1021,2.1007,2.1001,2.0985,2.0978,2.0962,2.0956,2.0956,2.0938,2.0946,2.0937,2.0924,2.0924,2.0927,2.0963,2.0974,2.0992,2.0949,2.095,2.095,0,2.1112,2.1103,2.1108,2.1086,2.1084,2.1085,2.1071,2.1066,2.105,2.1039,2.1029,2.101,2.1006,2.0989,2.0982,2.0975,2.0969,2.0959,2.0959,2.0956,2.0938,2.0959,2.0998,2.1,2.0953,2.0953,2.0953,0,2.1151,2.114,2.1141,2.1134,2.1109,2.111,2.1099,2.1081,2.1075,2.1062,2.1057,2.1044,2.1037,2.1026,2.1003,2.0994,2.0997,2.0979,2.0986,2.0986,2.0987,2.0987,2.1023,2.0986,2.0986,2.0985,2.0985,0,2.1185,2.1189,2.1157,2.1158,2.116,2.1135,2.1137,2.1124,2.1108,2.1103,2.1079,2.1075,2.1045,2.1037,2.1019,2.1013,2.101,2.1,2.0995,2.1001,2.1002,2.0996,2.0993,2.0986,2.0986,2.0986,2.0986,0,2.1229,2.1209,2.1207,2.1183,2.1176,2.1179,2.1156,2.1154,2.1138,2.1131,2.1128,2.1102,2.109,2.1066,2.1048,2.1036,2.1033,2.1026,2.1039,2.1036,2.1043,2.1042,2.1075,2.1077,2.104,2.104,2.1041,0,2.1252,2.1254,2.1229,2.1224,2.1214,2.1207,2.12,2.1175,2.1168,2.1147,2.1147,2.1133,2.1121,2.1103,2.108,2.1065,2.1056,2.1068,2.1053,2.1058,2.1053,2.1052,2.1051,2.1071,2.1072,2.1072,2.1073,0,2.1293,2.1282,2.1273,2.126,2.1252,2.124,2.1227,2.1224,2.1195,2.1188,2.1176,2.1166,2.1146,2.1132,2.1113,2.1099,2.108,2.1077,2.1078,2.1084,2.1091,2.1084,2.1047,2.1077,2.1076,2.1076,2.1076,2.1076,2.1325,2.1324,2.1306,2.1295,2.1283,2.127,2.1266,2.1248,2.1238,2.122,2.1206,2.1194,2.1173,2.1146,2.1133,2.1121,2.1113,2.1114,2.1114,2.1114,2.1115,2.1093,2.1118,2.1118,2.1118,2.1118,2.1118,0,2.1362,2.1349,2.134,2.1321,2.1313,2.1296,2.128,2.1273,2.1263,2.1246,2.1234,2.1218,2.1203,2.1179,2.1161,2.1156,2.1147,2.1152,2.1152,2.1148,2.1126,2.1126,2.116,2.116,2.116,2.116,2.116,2.116,2.1381,2.1377,2.1364,2.1352,2.1338,2.1327,2.1318,2.1305,2.1291,2.1275,2.1262,2.1247,2.1226,2.1206,2.119,2.1183,2.1177,2.1185,2.1175,2.1154,2.115,2.1146,2.1147,2.1184,2.1184,2.1198,2.1198,2.1198]}]]